GFSFLT2_925_spd_162.txt.gz
Wind_Speed
9 8 10 6 2 7 3 3 4 2 6 5 6 3 5 7 8 14 14 13 10 8 22 24 26 24 25 25 21 31 37 36
6 7 3 9 5 3 3 1 1 5 5 4 4 8 5 5 8 7 10 13 9 10 18 24 29 31 24 25 29 23 31 35
3 3 7 1 2 4 5 5 5 4 6 8 12 13 10 7 6 10 14 11 10 9 16 20 21 27 31 13 18 18 16 22
11 5 5 6 8 5 5 3 2 3 6 3 3 7 8 9 8 6 7 8 10 15 19 19 23 20 20 15 11 13 11 13
8 7 4 4 5 5 5 2 3 2 5 2 6 10 15 17 14 11 11 8 6 7 11 18 21 24 24 22 13 12 20 16
8 7 3 2 3 4 5 4 3 4 3 1 11 15 8 10 12 14 12 10 8 6 7 12 19 25 29 24 19 14 18 15
6 6 5 3 2 8 4 7 6 4 7 13 16 18 16 13 10 11 12 12 12 8 6 12 14 21 25 24 22 24 22 22
3 6 8 6 8 5 4 6 4 7 6 4 4 8 10 16 16 14 13 11 8 8 11 15 19 20 22 27 28 29 27 23
3 3 7 2 7 4 3 1 6 5 8 7 7 9 14 14 16 16 15 12 9 8 11 17 17 17 19 22 21 24 24 24
4 3 2 7 4 6 6 4 7 5 8 7 16 18 9 8 13 13 13 13 8 11 16 15 15 14 11 12 15 15 16 18
2 4 5 0 5 6 6 5 5 7 17 8 10 5 2 8 10 13 14 11 16 24 20 16 14 13 10 8 7 6 6 9
3 2 6 6 4 7 6 4 5 9 10 4 11 9 5 10 15 14 21 26 24 25 22 17 11 14 10 4 3 3 5 7
13 5 6 6 1 4 7 5 7 4 10 8 12 10 9 14 15 24 26 24 30 27 20 16 15 12 7 2 2 2 7 7
2 4 6 3 9 6 7 3 3 6 6 12 6 12 18 18 17 16 16 23 28 26 24 19 17 15 9 6 4 3 5 6
2 2 3 2 4 4 5 5 3 3 9 7 5 15 18 14 15 15 21 24 28 28 24 19 15 14 13 8 2 1 3 6
2 4 4 7 7 5 2 0 5 1 4 10 7 8 17 14 13 12 17 19 26 27 23 22 19 15 13 11 6 3 1 6
5 6 5 4 5 2 7 11 13 5 7 8 8 10 12 8 9 10 19 22 29 26 24 26 23 18 15 11 8 9 5 8
4 5 4 5 4 7 8 7 2 4 6 4 7 6 8 13 12 18 17 23 24 25 28 29 26 21 18 13 10 11 11 9
5 2 6 6 5 5 3 4 3 5 15 13 13 8 23 12 12 22 23 23 26 28 31 31 27 25 21 16 11 8 9 9

GFSFLT2_925_spd_165.txt.gz
Wind_Speed
5 6 9 5 4 3 7 3 3 3 7 9 5 5 5 7 8 10 10 11 12 14 22 27 30 33 31 28 28 29 33 33
7 3 3 7 6 2 3 2 3 4 5 5 3 8 7 7 8 8 8 9 9 12 21 31 29 30 31 32 27 24 25 30
2 5 6 3 2 5 5 4 6 3 6 7 8 7 9 8 7 9 10 12 11 11 22 25 22 20 26 26 23 24 23 23
12 6 3 5 5 6 5 4 1 3 6 3 7 8 8 9 8 8 7 7 7 11 15 17 20 21 24 26 24 23 24 31
10 7 5 3 3 5 6 3 5 6 6 1 3 3 7 10 8 7 6 5 6 7 11 17 22 19 18 18 21 21 19 20
11 9 5 4 3 4 5 4 4 5 4 4 4 6 6 7 11 9 8 7 6 6 7 14 16 18 17 21 22 21 22 22
7 6 6 6 11 7 4 6 6 5 8 10 8 10 13 10 8 8 7 7 8 8 7 14 19 22 24 22 27 21 16 14
4 2 5 5 9 8 4 5 2 4 7 3 7 6 4 12 12 10 9 9 8 6 6 10 14 19 22 22 21 18 18 19
3 4 2 2 7 8 6 6 8 6 7 5 8 9 8 12 15 16 13 12 10 9 9 13 14 13 15 18 19 20 21 24
3 3 4 8 3 5 7 9 7 5 6 5 7 10 16 11 16 13 11 11 9 9 14 13 10 8 8 10 12 14 17 20
3 4 4 5 2 7 7 6 2 6 6 2 4 5 1 13 11 16 14 10 17 22 22 16 13 10 8 7 7 9 12 15
4 4 6 5 8 4 4 4 2 2 3 5 7 5 6 13 13 8 11 20 22 27 24 21 17 14 11 7 8 9 9 9
5 5 5 6 5 5 6 6 1 2 4 6 4 5 1 13 10 15 20 22 25 25 24 22 18 16 11 7 5 4 3 5
2 2 5 6 2 4 3 6 3 4 2 3 6 6 11 14 15 15 14 20 24 23 21 18 18 15 11 9 6 4 8 5
5 4 3 2 1 4 5 2 3 4 6 3 5 5 14 15 18 16 22 23 24 25 22 19 17 15 12 9 6 7 7 7
4 3 4 5 6 4 5 4 7 4 6 3 6 9 9 14 16 16 19 20 25 26 22 20 18 15 10 9 7 6 8 9
5 7 7 2 2 3 7 5 6 3 4 1 12 7 9 5 8 13 20 21 26 24 24 24 20 17 14 11 9 9 8 11
4 6 3 6 3 2 5 6 7 3 2 3 9 10 8 9 7 10 3 18 20 23 25 25 23 19 16 14 10 9 9 11
4 4 5 6 7 4 6 9 5 7 6 6 7 7 7 7 11 13 15 15 21 27 28 29 25 20 17 15 11 10 9 10

GFSFLT2_925_spd_168.txt.gz
Wind_Speed
5 5 10 6 5 5 7 3 2 3 7 8 2 4 3 5 7 12 12 11 12 14 21 24 24 31 32 32 33 30 31 30
4 3 1 6 6 3 2 4 3 4 5 5 3 5 3 6 9 8 7 8 9 12 20 25 26 28 30 32 33 33 32 30
3 3 5 2 2 5 5 4 5 2 6 7 8 6 8 7 7 9 10 9 9 10 16 18 21 24 29 29 28 28 29 29
14 3 3 5 7 5 5 4 1 3 6 4 7 6 8 8 7 6 7 8 8 9 13 17 19 21 24 28 29 30 28 25
10 5 2 5 4 4 6 4 6 6 5 2 5 6 8 8 8 7 7 6 6 6 10 16 19 23 23 22 26 28 24 24
8 9 4 4 6 5 6 5 6 6 4 5 7 8 6 8 8 8 8 9 6 4 5 12 17 19 19 18 19 20 20 22
8 9 5 6 7 10 7 6 7 7 9 8 8 8 7 8 7 7 8 8 7 6 6 11 13 14 15 14 14 14 17 17
5 5 7 5 7 9 4 5 2 5 7 6 4 6 6 8 9 8 7 8 7 5 6 9 13 14 13 13 14 15 19 15
5 2 1 3 8 8 5 4 8 6 10 6 5 9 8 6 7 10 7 7 9 9 9 11 9 7 6 6 8 12 14 13
4 1 7 7 2 5 6 5 6 2 4 12 8 10 10 10 12 8 9 9 9 10 13 13 11 7 5 5 6 7 7 8
3 3 5 4 3 3 5 7 7 6 4 3 2 4 5 12 14 16 13 10 12 18 22 18 14 11 10 9 7 5 2 2
3 4 8 6 3 4 4 4 3 5 6 4 6 4 9 12 20 14 12 16 16 21 22 19 15 14 10 8 5 2 2 3
4 3 6 4 7 3 6 5 2 4 5 6 6 7 5 9 13 16 19 22 24 24 23 19 17 16 13 9 6 4 2 3
1 3 6 7 6 4 3 2 3 2 3 5 8 8 7 8 9 17 16 19 23 19 21 18 17 14 10 7 5 5 6 3
3 4 3 5 3 5 4 4 2 4 6 7 7 7 6 7 10 12 18 22 23 25 23 19 18 16 14 10 7 5 6 5
5 4 4 8 7 4 4 4 7 8 9 4 6 7 8 6 7 11 18 22 25 26 21 21 20 17 12 13 9 7 7 6
4 12 14 8 6 5 7 6 6 5 4 6 4 3 5 5 7 7 9 14 22 22 22 24 21 18 15 14 12 10 9 9
3 14 8 8 5 4 5 7 7 6 8 5 6 2 6 6 7 15 17 19 15 11 8 23 22 19 16 14 11 11 10 11
2 19 11 12 8 6 6 6 5 5 5 3 5 4 3 4 9 20 21 29 12 3 11 17 23 20 17 15 11 8 7 9

GFSFLT2_925_spd_171.txt.gz
Wind_Speed
7 6 10 6 8 2 2 1 3 2 6 9 4 1 2 3 6 11 15 17 18 20 23 24 24 25 25 22 25 24 24 22
2 5 4 6 9 4 3 4 7 4 5 8 3 5 3 4 7 10 12 14 14 15 21 21 23 23 22 23 24 27 23 25
2 7 10 5 5 2 2 4 7 6 5 5 7 6 9 8 7 9 12 14 13 13 16 17 17 20 22 21 22 21 22 22
17 6 3 3 7 6 6 5 1 3 5 3 6 5 8 10 10 9 10 11 11 13 15 17 19 19 21 19 19 21 20 19
6 4 4 7 8 10 6 2 8 7 5 2 5 6 9 11 12 11 11 11 9 9 12 15 16 18 19 19 19 17 18 17
12 13 1 5 7 12 15 7 8 10 11 7 8 9 8 11 11 11 11 11 10 8 8 12 13 15 15 15 14 13 15 15
15 16 9 12 13 12 16 15 10 13 12 12 9 10 12 10 9 10 12 12 11 10 9 11 12 13 13 13 12 13 12 13
7 13 13 14 13 13 18 9 9 7 11 9 2 3 8 10 12 13 12 12 11 10 11 12 15 15 14 13 13 13 11 11
12 9 9 11 14 15 11 10 14 10 14 9 7 10 13 12 13 15 15 14 14 13 11 13 14 15 14 13 12 12 13 13
7 6 16 11 4 11 17 10 13 8 8 12 9 5 7 10 13 15 15 14 13 11 13 12 11 11 12 11 11 11 11 11
8 11 10 11 3 4 9 13 13 13 7 6 2 2 9 13 13 14 18 14 14 16 15 14 14 12 13 12 12 10 10 9
5 10 18 13 8 10 7 9 0 10 10 8 5 6 9 3 11 12 11 15 20 19 15 17 16 16 16 13 12 10 8 7
12 10 7 7 15 8 8 5 13 8 7 7 8 6 6 8 6 16 20 18 18 24 19 17 17 17 16 13 10 8 8 9
3 5 11 13 3 1 8 12 11 12 8 3 7 12 12 12 12 12 20 24 23 24 21 18 17 16 16 13 10 9 10 9
4 3 6 6 6 11 10 10 8 12 14 13 13 12 14 10 7 11 18 21 25 24 24 19 17 15 15 12 11 10 9 7
3 1 9 15 15 9 8 10 11 10 14 12 14 14 16 10 6 9 15 20 24 25 24 20 17 15 14 14 11 10 8 7
7 11 11 1 8 12 11 11 11 10 12 12 11 13 10 4 4 6 11 17 20 21 19 19 15 12 12 13 11 9 8 6
10 4 4 7 16 19 17 16 13 11 11 10 8 8 5 3 7 12 15 18 22 21 20 16 14 13 13 11 10 9 8 7
10 9 8 9 20 23 21 19 12 9 10 8 7 4 3 6 11 16 20 22 21 21 22 16 12 11 12 11 10 8 6 6